User: anonymous   Login
Location: LDNL
(36.4545°S, 141.6685°E)
Time: 04:06:03
(UTC+10:00)
Language:

AO-92 - Orbit

View from above orbital plane
View from above orbital plane
View from above satellite
View from above satellite

Ground track
Ground track

The orbit data is extracted from the following two-line orbital elements,

1 43137U 18004AC  22135.76793642  .00015360  00000-0  55192-3 0  9998
2 43137  97.3697 211.2310 0009403 116.5178 243.7027 15.28696748241352
Epoch (UTC): 15 May 2022 18:25:49
Eccentricity: 0.0009403
inclination: 97.3697°
perigee height: 473 km
apogee height: 486 km
right ascension of ascending node: 211.2310°
argument of perigee: 116.5178°
revolutions per day: 15.28696748
mean anomaly at epoch: 243.7027°
orbit number at epoch: 24135

The dashed part of the orbit path shows where the satellite is in the earth's shadow,  

DLR